Regional Weather Roundup
Issued by NWS

Home | Current Version | Previous Version | Graphics & Text | Print | Product List | Glossary On
Versions: 1 2 3 4 5 6 7 8 9 10 11 12 13 14 15 16 17 18 19 20 21 22 23 24 25 26 27 28 29 30 31 32 33 34 35 36 37 38 39 40 41 42 43 44 45 46 47 48 49 50
000
ASUS43 KBIS 190802
RWRND

NORTH DAKOTA REGIONAL WEATHER ROUNDUP
NATIONAL WEATHER SERVICE BISMARCK ND
200 AM CST FRI JAN 19 2018

NOTE: "FAIR" INDICATES FEW OR NO CLOUDS BELOW 12,000 FEET WITH NO
SIGNIFICANT WEATHER AND/OR OBSTRUCTIONS TO VISIBILITY.


NDZ001>003-009>011-017-190900-
NORTHWEST NORTH DAKOTA

CITY           SKY/WX    TMP DP  RH WIND       PRES   REMARKS
WILLISTON      CLOUDY    59  30  33 SW7       29.56S
MINOT          CLOUDY    39  30  70 SW13      29.49F
MINOT AFB      CLOUDY    38  31  74 W15       29.47F
$$

NDZ018>021-031>035-040>046-190900-
SOUTHWEST NORTH DAKOTA

CITY           SKY/WX    TMP DP  RH WIND       PRES   REMARKS
BISMARCK       MOCLDY    31  26  82 W8        29.58S
DICKINSON      CLOUDY    36  27  69 W9        29.56F
GARRISON         N/A     33  26  75 W7        29.55F
HETTINGER ARPT PTCLDY    31  25  78 NW9       29.61F
$$

NDZ004>008-012>016-024-026-027-054-190900-
NORTHEAST NORTH DAKOTA

CITY           SKY/WX    TMP DP  RH WIND       PRES   REMARKS
GRAND FORKS    FAIR      30  26  85 S10       29.48F
DEVILS LAKE    FAIR      33  27  78 SW10      29.50F
$$

NDZ022-023-025-028>030-036>039-047>053-190900-
SOUTHEAST NORTH DAKOTA

CITY           SKY/WX    TMP DP  RH WIND       PRES   REMARKS
FARGO          FAIR      32  27  81 S14         N/A
JAMESTOWN      CLOUDY    35  28  75 NW12      29.56R
$$





USA.gov is the U.S. government's official web portal to all federal, state and local government web resources and services.